Theta_e
302 302 302 303 303 302 304 305 305 305 304 303 304 304 307 309 310 310 311 311 311 314 314 315 319 318 319 319 319 319 317 317 319 321 320 321 319 327 339 344 346 347 357 354 352
303 303 303 303 304 303 304 306 306 304 304 308 309 306 307 308 309 312 311 310 310 312 315 316 315 316 315 317 318 317 316 319 318 321 322 321 321 319 335 343 346 355 354 353 353
303 303 303 303 304 304 304 307 309 307 309 310 308 307 307 309 314 312 318 312 310 312 315 318 317 314 315 315 316 316 319 320 322 321 322 322 323 321 329 335 353 357 355 355 354
303 303 303 303 304 304 304 306 311 312 311 311 307 307 308 312 307 319 317 319 314 311 315 317 316 315 314 314 314 316 317 318 320 320 321 322 321 321 324 334 345 353 352 353 355
304 304 304 304 304 305 304 306 311 312 312 311 307 307 309 314 311 312 314 315 314 312 318 315 314 314 315 313 314 315 316 318 318 319 319 322 326 319 320 332 347 351 351 350 350
304 304 304 305 304 304 305 306 310 312 309 310 307 308 312 311 310 312 315 316 315 316 317 313 313 312 314 313 313 315 316 318 319 317 319 321 323 321 320 336 345 349 350 348 346
304 304 304 305 304 305 305 307 310 312 309 309 307 309 314 309 313 317 317 317 316 317 314 315 315 313 312 314 313 314 315 315 318 318 318 321 322 319 319 331 339 343 342 340 339
304 304 304 305 305 305 306 307 310 313 310 308 308 315 311 311 312 313 316 317 316 316 315 315 315 311 312 312 314 315 314 314 316 317 319 318 324 328 323 330 339 335 338 337 333
303 304 305 305 305 306 307 310 314 315 309 308 310 315 310 315 318 318 316 315 317 316 315 315 312 311 312 313 312 312 313 314 316 317 319 318 318 320 319 334 337 335 335 334 327
303 303 305 306 306 307 311 314 316 312 311 311 315 312 313 318 320 318 318 318 314 314 313 313 310 311 308 309 313 313 314 314 316 317 318 318 316 316 320 330 334 334 331 329 331
303 304 305 307 307 309 315 314 308 311 314 316 316 314 316 320 321 317 317 314 315 314 313 313 311 310 310 310 311 313 313 314 315 316 318 318 317 317 318 319 323 323 328 327 328
303 304 305 306 309 313 315 312 309 311 311 314 315 315 316 317 319 320 321 313 314 313 312 312 311 311 312 312 312 312 312 313 313 314 316 316 318 320 318 318 318 325 322 323 320
303 304 306 307 310 314 312 310 310 310 313 315 315 315 315 316 316 317 314 311 313 312 311 310 312 314 313 313 314 312 312 312 313 314 314 316 316 318 320 320 322 320 324 323 321
303 304 307 308 311 310 310 310 310 311 316 320 318 317 316 315 316 316 315 313 312 312 312 312 313 314 315 315 315 314 315 314 314 313 313 313 314 313 319 322 321 321 320 325 320
303 305 308 309 310 310 310 310 311 314 316 323 318 318 316 316 318 319 316 314 314 314 314 315 316 317 316 316 316 316 316 316 316 315 314 315 311 312 316 318 320 319 319 321 322
304 307 309 309 309 310 309 311 312 318 325 319 317 316 316 316 317 317 317 316 315 313 313 314 315 316 316 317 316 317 316 316 313 312 314 314 312 312 312 316 317 317 318 319 320
304 310 312 309 309 309 310 309 315 320 316 316 315 315 316 314 316 316 317 316 315 315 315 315 315 316 317 317 317 317 313 315 315 315 317 315 315 312 314 315 316 317 317 318 318
305 312 313 309 308 308 311 310 318 315 311 312 311 316 315 313 313 315 317 317 314 314 319 317 317 317 317 316 316 315 313 316 317 317 317 317 319 318 315 315 316 316 318 319 316
307 312 309 308 308 309 307 311 310 310 309 310 312 314 312 310 311 312 311 312 312 312 315 322 323 320 322 318 316 316 316 314 316 317 318 318 318 318 320 318 318 318 318 318 315
307 310 309 308 309 311 308 311 309 307 308 309 309 310 310 308 309 310 313 309 308 311 313 312 321 322 323 322 322 316 315 318 315 318 318 317 319 320 318 319 320 319 317 317 317
307 308 307 308 311 306 305 307 308 307 307 308 307 308 307 306 307 309 310 308 307 309 310 309 314 320 319 322 320 321 321 321 318 316 318 317 318 316 324 320 320 320 320 317 316
302 307 308 307 303 301 303 305 307 306 306 306 305 307 305 305 305 309 306 306 305 307 310 307 310 313 314 314 316 322 314 319 326 327 323 319 319 320 322 323 322 322 321 317 316
301 304 307 305 302 301 303 306 306 305 304 304 304 304 303 302 302 305 303 305 304 305 309 306 311 311 312 313 310 311 311 312 317 325 325 324 321 322 323 320 319 321 322 321 321
302 302 299 297 299 303 303 305 305 304 304 303 303 303 302 301 301 301 301 303 302 303 307 306 307 311 314 311 306 307 307 309 314 319 325 326 323 323 323 321 318 318 323 323 322
299 301 301 300 301 302 303 304 305 304 303 302 302 303 301 300 299 300 301 300 301 302 301 303 305 307 305 306 303 304 304 305 307 311 322 319 319 323 321 320 318 318 320 324 323
300 300 298 300 301 302 302 303 304 304 302 302 302 302 301 300 300 300 301 300 300 300 300 301 300 303 304 303 302 302 302 302 305 309 310 310 317 316 318 319 318 317 316 316 323
300 301 298 300 300 302 302 303 305 303 303 303 302 302 301 302 301 300 299 298 298 298 298 297 298 298 301 301 301 302 301 304 303 305 309 311 309 309 311 318 318 318 314 314 317
Wind_Speed
27 27 27 28 27 26 27 26 20 17 15 15 15 13 13 14 15 18 11 18 18 19 10 7 12 17 10 4 4 2 1 4 6 4 6 6 9 7 15 13 7 7 15 26 46
28 28 29 29 28 26 27 24 20 15 12 13 12 10 10 11 15 18 32 29 25 18 13 12 5 5 2 3 3 5 4 8 7 4 10 7 6 4 9 15 1 11 22 37 42
30 30 30 30 28 26 25 22 20 15 11 12 9 7 5 6 5 10 11 17 32 22 20 17 14 5 5 1 4 4 8 3 12 9 10 10 11 1 9 4 17 28 28 28 34
32 32 32 31 28 26 23 20 19 17 13 11 8 4 2 1 5 4 11 11 20 25 19 12 4 4 4 5 6 5 11 9 14 10 12 13 7 4 6 8 9 24 30 29 25
34 35 34 33 30 25 22 19 19 17 14 10 5 4 3 1 11 19 14 9 19 24 20 7 7 6 5 5 3 6 11 16 14 15 9 14 12 6 8 12 17 21 23 27 25
37 36 36 34 31 26 22 19 17 16 14 8 4 6 3 4 10 12 15 10 18 26 20 10 7 9 5 6 7 4 6 12 13 11 12 11 11 2 2 8 10 24 24 21 21
40 39 39 35 30 26 22 19 15 15 11 5 5 5 4 16 5 13 8 18 25 26 6 20 21 4 4 5 7 5 7 10 13 5 8 18 18 9 6 15 17 18 16 14 12
43 42 42 36 30 26 25 20 15 14 7 3 5 4 7 16 15 12 13 13 16 20 24 24 21 5 4 5 9 4 3 6 7 6 7 9 19 30 6 13 19 12 13 13 8
45 42 42 37 30 26 22 20 15 5 1 5 5 3 10 13 6 15 23 17 23 24 23 22 6 7 5 6 3 2 6 5 8 6 6 8 6 20 7 15 16 16 15 12 9
48 45 42 35 27 25 19 14 6 4 6 2 5 3 8 5 4 7 17 25 7 7 6 5 4 5 3 4 10 3 3 5 6 6 4 9 7 8 3 10 14 18 15 12 16
49 46 44 33 25 19 20 5 6 3 4 6 8 7 11 4 15 5 16 7 7 3 5 5 3 6 9 7 7 4 6 8 7 9 4 9 8 10 7 9 11 8 12 13 16
49 46 41 31 20 12 11 4 7 12 10 14 20 23 30 19 10 21 18 5 2 6 3 4 8 8 8 7 8 7 8 18 8 10 6 11 12 14 8 7 9 16 10 9 8
50 47 39 28 10 12 8 20 27 29 4 9 8 9 8 15 13 18 8 7 7 5 6 8 6 8 8 11 10 11 12 9 12 10 6 7 8 16 9 9 26 14 17 13 16
51 45 33 26 4 17 6 30 28 24 4 7 4 6 6 8 5 12 12 9 4 12 8 9 6 12 13 10 10 15 10 14 16 5 9 8 9 6 7 18 24 25 19 20 15
51 45 24 9 12 8 24 32 29 2 3 3 3 4 2 9 1 3 9 4 11 10 7 12 7 9 11 13 9 14 16 18 8 6 1 3 3 8 2 8 20 22 18 21 20
50 36 15 7 11 21 31 30 5 4 4 9 5 12 11 8 8 14 4 4 4 6 6 11 6 8 8 10 7 8 7 0 3 4 0 12 8 6 5 8 6 7 14 17 19
51 23 11 10 9 27 29 6 4 2 11 9 9 11 6 9 7 13 18 17 10 6 7 5 10 9 9 11 10 3 4 4 3 1 8 4 2 8 7 9 9 10 10 16 16
47 15 10 16 24 23 13 5 1 8 7 10 11 11 7 17 10 10 13 10 20 17 4 4 10 5 5 9 10 8 8 6 8 5 12 3 4 14 9 10 9 10 12 11 13
38 11 17 29 28 14 5 5 2 6 7 9 6 7 7 12 12 11 11 13 14 15 5 6 6 13 13 7 5 11 5 9 5 2 1 4 7 7 2 8 8 14 11 12 8
19 12 18 34 24 5 5 4 4 8 6 6 7 9 9 14 11 10 8 15 10 15 8 8 7 7 9 7 3 3 4 4 2 6 6 3 4 13 9 12 9 12 11 8 7
8 4 26 31 6 6 4 3 4 11 7 6 6 4 5 5 4 5 10 13 16 15 10 11 1 8 10 5 12 8 7 5 3 4 8 3 7 4 2 7 10 7 5 7 8
10 4 26 23 5 3 3 7 7 6 7 6 6 6 3 4 3 3 8 6 13 11 5 6 3 4 7 18 11 2 13 9 3 6 3 3 8 10 17 17 19 7 4 9 8
4 3 15 17 4 4 4 5 4 5 6 4 5 4 3 4 4 4 6 5 12 12 5 7 4 6 11 4 11 8 19 18 10 2 3 1 4 12 16 19 18 18 14 13 15
3 5 5 5 2 4 6 4 6 6 6 4 4 5 4 4 2 5 5 6 10 8 13 5 2 2 3 3 9 9 16 15 9 2 2 10 10 12 9 12 16 18 17 12 14
4 2 1 4 5 8 0 4 3 5 4 6 3 4 2 4 5 2 2 3 4 3 2 4 4 4 8 12 15 15 15 14 16 12 5 5 7 2 3 5 5 8 11 12 9
2 3 4 4 5 6 7 4 6 4 1 3 2 3 4 2 6 14 2 1 4 2 1 3 5 5 12 12 14 18 19 13 15 15 10 6 4 6 6 4 8 7 10 9 10
8 7 3 4 5 3 0 6 10 6 5 2 3 4 6 4 5 6 4 5 7 5 4 5 3 2 13 10 13 14 10 6 13 15 8 5 1 9 9 7 2 4 8 11 3
Wind_Direction
1 358 354 350 347 344 339 335 329 320 312 307 300 289 281 285 289 279 244 232 235 232 286 297 231 244 253 240 206 111 353 232 227 235 269 351 15 99 191 178 232 196 155 150 148
2 359 354 350 347 345 341 339 336 328 323 316 306 286 281 297 302 267 257 250 239 236 257 239 244 205 239 230 216 156 182 233 210 251 292 284 4 304 157 197 89 116 137 138 150
0 358 355 349 346 343 342 339 338 332 329 323 309 285 282 320 331 248 331 248 233 221 236 247 231 147 201 259 221 215 230 269 273 276 285 310 312 328 134 299 172 156 153 153 155
360 356 353 350 345 342 341 337 335 328 319 315 301 269 214 94 267 251 350 271 211 210 232 213 206 159 211 223 240 252 265 265 277 276 285 278 314 323 198 187 247 165 158 152 163
360 355 351 349 344 341 339 336 333 328 317 302 274 216 156 169 250 258 301 336 172 198 210 179 189 159 207 205 249 209 255 263 264 269 256 273 273 241 247 193 177 165 164 167 171
358 355 350 347 344 339 336 332 331 330 323 291 229 189 158 256 261 301 286 235 186 190 204 180 203 196 272 219 172 247 252 267 264 252 258 268 280 172 208 134 178 170 176 177 174
358 354 350 345 343 336 333 328 325 325 322 271 198 177 248 241 216 340 218 212 201 202 207 213 218 142 167 296 247 241 280 286 265 243 229 272 276 212 167 177 184 191 176 179 173
357 354 348 345 342 336 331 327 319 311 302 228 175 162 249 263 293 266 230 245 236 222 219 231 224 207 154 265 335 341 176 256 271 237 230 188 249 267 132 156 180 191 183 181 143
356 354 348 344 342 339 331 332 321 275 248 176 155 172 266 299 242 244 226 217 245 243 230 236 177 211 292 212 325 304 243 258 303 215 230 163 221 256 161 158 186 188 187 185 127
355 353 347 344 344 340 337 349 14 98 106 153 265 12 268 257 255 227 223 221 198 213 245 200 169 199 28 91 227 261 275 281 250 273 199 255 240 259 289 138 196 191 186 175 159
354 353 346 341 344 344 345 353 7 5 194 205 217 233 286 287 319 288 228 183 184 141 206 221 155 213 233 220 195 237 256 260 260 264 254 249 235 250 202 184 177 216 203 184 174
353 351 345 337 338 351 6 36 338 308 298 223 243 237 245 269 298 291 289 155 178 228 172 322 233 228 226 232 244 244 248 263 285 259 179 262 261 274 227 186 184 195 221 218 139
353 350 344 335 342 11 350 358 342 345 290 291 235 251 219 211 239 256 173 198 186 226 227 197 233 228 221 244 243 246 238 259 244 272 231 216 265 254 232 168 239 203 207 200 167
352 351 344 337 29 348 337 339 333 335 5 279 220 252 153 177 238 229 213 168 175 209 228 235 230 238 248 243 227 254 243 239 246 236 252 152 258 269 240 219 210 221 197 204 182
350 350 343 353 334 343 327 330 324 18 349 317 61 137 127 165 175 264 172 103 200 210 156 239 239 260 259 249 242 251 254 238 202 193 171 233 121 258 197 242 225 220 191 196 192
349 351 344 352 334 339 335 328 343 41 267 356 31 352 3 351 360 347 237 137 205 190 229 231 214 219 238 262 252 265 273 108 77 116 347 252 178 244 215 223 261 224 202 195 190
347 354 356 339 311 335 333 4 32 140 336 356 347 326 350 346 23 16 19 50 22 315 238 235 234 244 253 272 282 229 68 277 306 353 224 241 204 219 233 238 225 252 241 205 200
346 6 14 2 345 332 340 45 29 358 10 350 330 314 61 17 40 27 43 39 25 13 307 301 266 201 222 199 242 237 170 178 216 201 259 108 218 263 220 244 248 236 251 242 206
346 7 9 349 350 334 63 53 41 338 4 342 332 18 8 17 353 20 73 14 38 358 11 343 285 324 309 296 165 273 211 198 165 234 26 207 276 282 353 315 271 260 226 230 211
345 333 349 348 342 70 71 81 62 25 360 28 31 30 21 7 14 10 58 28 10 358 348 344 297 304 334 331 355 218 244 231 347 181 241 254 207 255 343 302 301 308 216 192 143
12 14 355 348 38 51 83 22 354 43 36 48 31 48 29 1 316 344 19 50 19 4 45 5 20 310 344 352 15 346 347 322 326 145 223 210 253 204 269 334 319 21 358 113 96
349 9 357 355 49 36 47 322 325 39 38 36 53 56 41 347 320 31 25 69 12 17 17 344 286 303 284 294 329 105 23 9 87 297 7 181 246 38 23 15 17 311 331 34 43
344 285 352 18 69 358 317 320 21 45 46 36 36 28 19 31 352 28 3 16 33 20 45 337 4 323 318 12 27 14 351 338 320 335 207 120 256 30 31 23 13 21 13 61 62
16 2 333 21 8 46 6 289 346 55 60 57 35 28 44 358 39 309 354 352 19 19 28 38 32 55 288 331 316 321 331 329 312 293 266 239 302 4 34 29 5 17 1 24 54
31 345 336 326 323 326 223 277 319 9 27 42 351 17 77 350 314 200 236 302 7 9 16 123 207 223 273 280 301 301 308 322 307 294 237 305 305 247 35 67 44 13 4 359 44
65 26 342 279 296 329 340 1 14 325 122 308 41 314 350 264 238 288 266 275 226 287 272 187 264 262 279 290 288 290 296 294 270 285 273 278 274 1 313 5 56 28 352 352 343
357 339 106 282 326 357 216 353 318 1 318 2 286 310 302 274 288 243 219 214 219 219 251 190 195 241 279 278 284 284 257 282 299 292 305 280 67 7 10 351 28 60 360 312 318